Simultaneous Nadir Overpasses (SNOs) Predictions

Prediction of SNOs between LANDSAT-8 and NPP Satellite Orbit:

Table of predicted SNOs for the next 14.0 days since TLE Epoch: 4/10/2015
Index Date (LANDSAT-8) Time (LANDSAT-8) Lat,Lon (LANDSAT-8) SZA (LANDSAT-8 ) Date (NPP) Time (NPP) Lat,Lon (NPP) SZA (NPP ) Distance(km) Time Diff (sec)
1 04/12/2015 10:33:51 -70.87,-161.20 117.85 04/12/2015 10:32:39 -70.91,-161.61 117.80 15.78 72
2 04/12/2015 11:23:20 70.67, 6.13 61.94 04/12/2015 11:23:20 70.65, 6.13 61.92 1.76 0
3 04/12/2015 12:12:50 -70.55, 173.59 118.19 04/12/2015 12:14:02 -70.56, 173.59 118.19 1.11 72
4 04/15/2015 02:50:22 -70.74, -45.53 118.96 04/15/2015 02:49:26 -70.71, -45.50 118.98 3.27 56
5 04/15/2015 03:39:49 70.64, 121.96 60.94 04/15/2015 03:40:11 70.66, 121.89 60.96 3.48 22
6 04/15/2015 04:29:32 -69.81, -71.59 119.88 04/15/2015 04:30:39 -69.83, -69.51 119.91 79.91 67
7 04/17/2015 19:06:51 -70.71, 70.30 119.94 04/17/2015 19:06:17 -70.72, 70.25 119.92 2.43 34
8 04/17/2015 19:56:18 70.60,-122.21 59.95 04/17/2015 19:57:01 70.62,-122.27 59.97 2.74 43
9 04/20/2015 10:33:42 71.16, 19.23 59.58 04/20/2015 10:32:32 71.21, 17.91 59.67 47.69 70
10 04/20/2015 11:23:19 -70.67,-173.89 120.91 04/20/2015 11:23:06 -70.69,-173.91 120.88 2.85 13
11 04/20/2015 12:12:46 70.56, -6.41 58.98 04/20/2015 12:13:49 70.54, -6.35 58.95 3.29 63
12 04/23/2015 02:50:17 70.78, 134.52 58.30 04/23/2015 02:49:14 70.76, 134.44 58.29 3.52 63
13 04/23/2015 03:39:47 -70.67, -58.01
